Regional Weather Roundup
Issued by NWS Midland/Odessa, TX

Skip options and go directly to product.
Home | Oldest Version | Next Version | Current Version | All | Text Only | Save Text | Print | Product List | Glossary On

Skip product version selection by date and time.   
564
ASUS44 KMAF 301002
RWRMAF
MIDLAND AREA WEATHER ROUNDUP
NATIONAL WEATHER SERVICE MIDLAND TX
500 AM CDT TUE SEP 30 2014

...IN SOUTHWEST TEXAS AND SOUTHEAST NEW MEXICO...

CITY           SKY/WX    TMP DP  RH WIND       PRES   REMARKS
ALPINE         PTCLDY    61  55  82 SW9       30.05F
ANDREWS        MOCLDY    63  59  87 SE6       29.91F
ARTESIA        NOT AVBL
BIG SPRING     PTCLDY    66  58  76 SE6       29.94S
CARLSBAD       CLEAR     63  59  87 E7        29.88R
DRYDEN           N/A     65  62  90 NW5       29.89F
FORT STOCKTON  CLEAR     67  59  75 S9        29.90F
GUAD PASS      CLEAR     63  55  75 W10       30.03F
HOBBS          PTCLDY    63  59  88 S10       29.93F
MARFA          CLEAR     54  52  94 CALM      30.05F
MIDLAND AIRPK  CLEAR     66  59  77 SE6       29.91F
MIDLAND INTL   CLEAR     64  59  83 SE8       29.90F
ODESSA         PTCLDY    67  59  75 S10       29.91F
PECOS          MOCLDY    65  59  81 E6        29.87F
PRESIDIO       FAIR      71  60  68 N7        29.91S
SEMINOLE       MOCLDY    63  58  86 S3        29.93F
SNYDER         PTCLDY    63  57  81 S6        29.91F
WINK           PTCLDY    66  60  81 SE9       29.87F
$$
...OTHER STATIONS IN TEXAS...

CITY           SKY/WX    TMP DP  RH WIND       PRES   REMARKS
ABILENE        CLEAR     67  56  67 S6        29.92S
AMARILLO       PTCLDY    63  56  78 S15       29.92S
AUSTIN         PTCLDY    64  62  93 CALM      29.88F
BROWNSVILLE    PTCLDY    74  74 100 W3        29.82S
CORPUS CHRISTI PTCLDY    75  73  93 N6        29.83F
DALLAS FTW     MOCLDY    71  64  78 E5        29.89F
DEL RIO        CLEAR     71  66  84 NE7       29.87F
EL PASO        PTCLDY    72  55  55 SW9       29.93S
HOUSTON INT    PTCLDY    73  71  93 CALM      29.87S
LUBBOCK        PTCLDY    63  57  81 S9        29.92F
SAN ANGELO     CLEAR     65  60  84 S5        29.91S
SAN ANTONIO    CLEAR     68  63  84 CALM      29.89F
WACO           CLEAR     65  60  84 CALM      29.89F
WICHITA FALLS  NOT AVBL
$$
...OTHER LOCATIONS IN NEW MEXICO...

CITY           SKY/WX    TMP DP  RH WIND       PRES   REMARKS
ALAMAGORDO     PTCLDY    63  55  77 S7        29.94F
ALBUQUERQUE    CLEAR     49  36  61 SE5       30.05S
CANNON AFB     NOT AVBL
CLOVIS           N/A     57  54  88 W3        29.97F
HOLLOMAN AFB   CLEAR     64  57  77 S5        29.93R
ROSWELL        PTCLDY    62  58  86 S3        29.90R
RUIDOSO        PTCLDY    55  37  50 CALM      30.10S
SANTA FE       CLEAR     44  32  62 N7        30.06F
TRUTH OR CONSE CLEAR     60  44  55 CALM      29.99S
TUCUMCARI      CLEAR     60  55  83 S6        29.89F
$$

USA.gov is the U.S. government's official web portal to all federal, state and local government web resources and services.